Time,TemperatureF,DewpointF,PressureIn,WindDirection,WindDirectionDegrees,WindSpeedMPH,WindSpeedGustMPH,Humidity,HourlyPrecipIn,Conditions,Clouds,dailyrainin,SoftwareType,DateUTC
2013-01-29 00:00:00,44.3,43.8,30.07,WNW,287,2.0,3.0,98,0.00,,---,0.00,VWS V14.00,2013-01-29 05:00:00,
2013-01-29 00:03:00,44.2,43.7,30.07,WNW,285,2.0,3.0,98,0.00,,---,0.00,VWS V14.00,2013-01-29 05:03:00,
2013-01-29 00:06:00,44.1,43.6,30.07,WNW,285,0.0,3.0,98,0.00,,---,0.00,VWS V14.00,2013-01-29 05:06:00,
2013-01-29 00:09:00,44.1,43.6,30.07,WNW,293,0.0,3.0,98,0.00,,---,0.00,VWS V14.00,2013-01-29 05:09:00,
2013-01-29 00:12:00,44.1,43.6,30.07,WNW,285,2.0,3.0,98,0.00,,---,0.00,VWS V14.00,2013-01-29 05:12:00,
2013-01-29 00:15:00,44.0,43.5,30.07,WNW,284,1.0,3.0,98,0.00,,---,0.00,VWS V14.00,2013-01-29 05:15:00,
2013-01-29 00:18:00,44.0,43.5,30.07,WNW,284,0.0,3.0,98,0.00,,---,0.00,VWS V14.00,2013-01-29 05:18:00,
2013-01-29 00:21:00,43.9,43.4,30.07,WNW,284,0.0,3.0,98,0.00,,---,0.00,VWS V14.00,2013-01-29 05:21:00,
2013-01-29 00:24:00,43.9,43.4,30.07,NNW,330,1.0,3.0,98,0.00,,---,0.00,VWS V14.00,2013-01-29 05:24:00,
2013-01-29 00:27:00,43.9,43.4,30.07,NNW,330,0.0,3.0,98,0.00,,---,0.00,VWS V14.00,2013-01-29 05:27:00,
2013-01-29 00:30:00,43.9,43.4,30.07,NNW,330,0.0,3.0,98,0.00,,---,0.00,VWS V14.00,2013-01-29 05:30:00,
2013-01-29 00:33:00,43.9,43.4,30.07,NNW,329,2.0,2.0,98,0.00,,---,0.00,VWS V14.00,2013-01-29 05:33:00,
2013-01-29 00:36:00,43.7,43.2,30.07,NNW,330,0.0,2.0,98,0.00,,---,0.00,VWS V14.00,2013-01-29 05:36:00,
2013-01-29 00:39:00,43.7,43.2,30.07,NNW,330,0.0,2.0,98,0.00,,---,0.00,VWS V14.00,2013-01-29 05:39:00,
2013-01-29 00:42:00,43.6,43.1,30.07,NE,44,1.0,3.0,98,0.00,,---,0.00,VWS V14.00,2013-01-29 05:42:00,
2013-01-29 00:45:00,43.4,42.9,30.07,North,354,2.0,3.0,98,0.00,,---,0.00,VWS V14.00,2013-01-29 05:45:00,
2013-01-29 00:48:00,43.2,42.7,30.06,NNW,336,2.0,3.0,98,0.00,,---,0.00,VWS V14.00,2013-01-29 05:48:00,
2013-01-29 00:51:00,43.1,42.6,30.06,NNW,333,0.0,3.0,98,0.00,,---,0.00,VWS V14.00,2013-01-29 05:51:00,
2013-01-29 00:54:00,43.1,42.6,30.07,NNW,333,1.0,3.0,98,0.00,,---,0.00,VWS V14.00,2013-01-29 05:54:00,
2013-01-29 00:57:00,43.1,42.6,30.06,NNW,333,0.0,3.0,98,0.00,,---,0.00,VWS V14.00,2013-01-29 05:57:00,
2013-01-29 01:00:00,43.1,42.6,30.06,NNW,333,2.0,3.0,98,0.00,,---,0.00,VWS V14.00,2013-01-29 06:00:00,
2013-01-29 01:03:00,42.9,42.4,30.06,NNW,334,0.0,2.0,98,0.00,,---,0.00,VWS V14.00,2013-01-29 06:03:00,
2013-01-29 01:06:00,42.8,42.3,30.06,NW,305,0.0,2.0,98,0.00,,---,0.00,VWS V14.00,2013-01-29 06:06:00,
2013-01-29 01:09:00,42.8,42.3,30.06,NNW,340,2.0,2.0,98,0.00,,---,0.00,VWS V14.00,2013-01-29 06:09:00,
2013-01-29 01:12:00,42.7,42.2,30.06,North,354,2.0,2.0,98,0.00,,---,0.00,VWS V14.00,2013-01-29 06:12:00,
2013-01-29 01:15:00,42.6,42.1,30.06,NNW,340,0.0,2.0,98,0.00,,---,0.00,VWS V14.00,2013-01-29 06:15:00,
2013-01-29 01:18:00,42.6,42.1,30.06,NNW,346,1.0,2.0,98,0.00,,---,0.00,VWS V14.00,2013-01-29 06:18:00,
2013-01-29 01:21:00,42.6,42.1,30.06,NNW,345,1.0,2.0,98,0.00,,---,0.00,VWS V14.00,2013-01-29 06:21:00,
2013-01-29 01:24:00,42.5,42.0,30.06,NNE,20,0.0,2.0,98,0.00,,---,0.00,VWS V14.00,2013-01-29 06:24:00,
2013-01-29 01:27:00,42.4,41.9,30.06,North,350,0.0,2.0,98,0.00,,---,0.00,VWS V14.00,2013-01-29 06:27:00,
2013-01-29 01:30:00,42.3,41.8,30.06,North,350,0.0,2.0,98,0.00,,---,0.00,VWS V14.00,2013-01-29 06:30:00,
2013-01-29 01:33:00,42.2,41.7,30.06,NNW,333,1.0,2.0,98,0.00,,---,0.00,VWS V14.00,2013-01-29 06:33:00,
2013-01-29 01:36:00,42.0,41.5,30.06,NNW,335,0.0,2.0,98,0.00,,---,0.00,VWS V14.00,2013-01-29 06:36:00,
2013-01-29 01:39:00,42.0,41.5,30.06,North,360,0.0,2.0,98,0.00,,---,0.00,VWS V14.00,2013-01-29 06:39:00,
2013-01-29 01:42:00,41.8,41.3,30.06,North,1,0.0,2.0,98,0.00,,---,0.00,VWS V14.00,2013-01-29 06:42:00,
2013-01-29 01:45:00,41.7,41.2,30.06,NNE,33,1.0,2.0,98,0.00,,---,0.00,VWS V14.00,2013-01-29 06:45:00,
2013-01-29 01:48:00,41.7,41.2,30.06,NNE,33,0.0,2.0,98,0.00,,---,0.00,VWS V14.00,2013-01-29 06:48:00,
2013-01-29 01:51:00,41.6,41.1,30.06,NNE,33,0.0,2.0,98,0.00,,---,0.00,VWS V14.00,2013-01-29 06:51:00,
2013-01-29 01:54:00,41.6,41.1,30.06,NNE,13,0.0,2.0,98,0.00,,---,0.00,VWS V14.00,2013-01-29 06:54:00,
2013-01-29 01:57:00,41.4,40.9,30.06,NNE,15,0.0,2.0,98,0.00,,---,0.00,VWS V14.00,2013-01-29 06:57:00,
2013-01-29 02:00:00,41.3,40.8,30.06,NNE,14,0.0,2.0,98,0.00,,---,0.00,VWS V14.00,2013-01-29 07:00:00,
2013-01-29 02:03:00,41.3,40.8,30.06,NNE,14,0.0,0.0,98,0.00,,---,0.00,VWS V14.00,2013-01-29 07:03:00,
2013-01-29 02:06:00,41.3,40.8,30.06,NNE,14,0.0,0.0,98,0.00,,---,0.00,VWS V14.00,2013-01-29 07:06:00,
2013-01-29 02:09:00,41.2,40.7,30.06,NNE,15,0.0,0.0,98,0.00,,---,0.00,VWS V14.00,2013-01-29 07:09:00,
2013-01-29 02:12:00,41.1,40.6,30.06,NNE,26,0.0,0.0,98,0.00,,---,0.00,VWS V14.00,2013-01-29 07:12:00,
2013-01-29 02:15:00,41.1,40.6,30.06,NNE,26,0.0,0.0,98,0.00,,---,0.00,VWS V14.00,2013-01-29 07:15:00,
2013-01-29 02:18:00,41.0,40.5,30.06,NE,39,0.0,0.0,98,0.00,,---,0.00,VWS V14.00,2013-01-29 07:18:00,
2013-01-29 02:21:00,41.0,40.5,30.06,NNE,23,0.0,0.0,98,0.00,,---,0.00,VWS V14.00,2013-01-29 07:21:00,
2013-01-29 02:24:00,40.8,40.3,30.06,NNE,15,0.0,0.0,98,0.00,,---,0.00,VWS V14.00,2013-01-29 07:24:00,
2013-01-29 02:27:00,40.7,40.2,30.06,NNE,20,1.0,3.0,98,0.00,,---,0.00,VWS V14.00,2013-01-29 07:27:00,
2013-01-29 02:30:00,40.7,40.2,30.06,NNE,13,0.0,3.0,98,0.00,,---,0.00,VWS V14.00,2013-01-29 07:30:00,
2013-01-29 02:33:00,40.7,40.4,30.06,NNE,28,0.0,1.0,99,0.00,,---,0.00,VWS V14.00,2013-01-29 07:33:00,
2013-01-29 02:36:00,40.9,40.6,30.06,North,1,1.0,2.0,99,0.00,,---,0.00,VWS V14.00,2013-01-29 07:36:00,
2013-01-29 02:39:00,40.9,40.6,30.06,North,4,1.0,2.0,99,0.00,,---,0.00,VWS V14.00,2013-01-29 07:39:00,
2013-01-29 02:42:00,40.8,40.5,30.06,NNW,328,0.0,2.0,99,0.00,,---,0.00,VWS V14.00,2013-01-29 07:42:00,
2013-01-29 02:45:00,40.6,40.1,30.06,NNW,334,3.0,3.0,98,0.00,,---,0.00,VWS V14.00,2013-01-29 07:45:00,
2013-01-29 02:48:00,40.3,39.8,30.06,North,354,1.0,3.0,98,0.00,,---,0.00,VWS V14.00,2013-01-29 07:48:00,
2013-01-29 02:51:00,40.1,39.6,30.06,ENE,76,1.0,3.0,98,0.00,,---,0.00,VWS V14.00,2013-01-29 07:51:00,
2013-01-29 02:54:00,40.0,39.5,30.06,ENE,78,0.0,3.0,98,0.00,,---,0.00,VWS V14.00,2013-01-29 07:54:00,
2013-01-29 02:57:00,39.9,39.4,30.06,NNE,19,0.0,3.0,98,0.00,,---,0.00,VWS V14.00,2013-01-29 07:57:00,
2013-01-29 03:00:00,39.9,39.4,30.06,NNE,15,0.0,3.0,98,0.00,,---,0.00,VWS V14.00,2013-01-29 08:00:00,
2013-01-29 03:03:00,39.9,39.6,30.07,NNW,328,0.0,0.0,99,0.00,,---,0.00,VWS V14.00,2013-01-29 08:03:00,
2013-01-29 03:06:00,40.0,39.7,30.07,NNW,328,2.0,2.0,99,0.00,,---,0.00,VWS V14.00,2013-01-29 08:06:00,
2013-01-29 03:09:00,39.9,39.6,30.07,NNW,333,1.0,3.0,99,0.00,,---,0.00,VWS V14.00,2013-01-29 08:09:00,
2013-01-29 03:12:00,39.9,39.6,30.07,North,8,0.0,3.0,99,0.00,,---,0.00,VWS V14.00,2013-01-29 08:12:00,
2013-01-29 03:15:00,39.9,39.6,30.07,North,360,0.0,3.0,99,0.00,,---,0.00,VWS V14.00,2013-01-29 08:15:00,
2013-01-29 03:18:00,39.9,39.6,30.07,NNE,27,0.0,3.0,99,0.00,,---,0.00,VWS V14.00,2013-01-29 08:18:00,
2013-01-29 03:21:00,39.8,39.5,30.07,NNW,337,0.0,3.0,99,0.00,,---,0.00,VWS V14.00,2013-01-29 08:21:00,
2013-01-29 03:24:00,39.7,39.4,30.07,NNE,33,0.0,3.0,99,0.00,,---,0.00,VWS V14.00,2013-01-29 08:24:00,
2013-01-29 03:27:00,39.6,39.3,30.07,NE,34,0.0,3.0,99,0.00,,---,0.00,VWS V14.00,2013-01-29 08:27:00,
2013-01-29 03:30:00,39.5,39.2,30.07,East,79,0.0,3.0,99,0.00,,---,0.00,VWS V14.00,2013-01-29 08:30:00,
2013-01-29 03:33:00,39.4,39.1,30.07,NNW,337,0.0,0.0,99,0.00,,---,0.00,VWS V14.00,2013-01-29 08:33:00,
2013-01-29 03:36:00,39.4,38.9,30.07,NNW,336,0.0,0.0,98,0.00,,---,0.00,VWS V14.00,2013-01-29 08:36:00,
2013-01-29 03:39:00,39.4,39.1,30.07,NNW,340,0.0,0.0,99,0.00,,---,0.00,VWS V14.00,2013-01-29 08:39:00,
2013-01-29 03:42:00,39.5,39.2,30.07,NNW,340,0.0,0.0,99,0.00,,---,0.00,VWS V14.00,2013-01-29 08:42:00,
2013-01-29 03:45:00,39.6,39.3,30.07,NNW,340,0.0,0.0,99,0.00,,---,0.00,VWS V14.00,2013-01-29 08:45:00,
2013-01-29 03:51:00,39.7,39.4,30.07,North,358,0.0,0.0,99,0.00,,---,0.00,VWS V14.00,2013-01-29 08:51:00,
2013-01-29 03:54:00,39.8,39.5,30.06,North,358,0.0,0.0,99,0.00,,---,0.00,VWS V14.00,2013-01-29 08:54:00,
2013-01-29 04:00:00,39.9,39.6,30.06,North,359,0.0,0.0,99,0.00,,---,0.00,VWS V14.00,2013-01-29 09:00:00,
2013-01-29 04:03:00,40.0,39.7,30.06,North,358,0.0,0.0,99,0.00,,---,0.00,VWS V14.00,2013-01-29 09:03:00,
2013-01-29 04:06:00,40.0,39.7,30.06,North,359,0.0,0.0,99,0.00,,---,0.00,VWS V14.00,2013-01-29 09:06:00,
2013-01-29 04:12:00,40.2,39.9,30.06,North,359,0.0,0.0,99,0.00,,---,0.00,VWS V14.00,2013-01-29 09:12:00,
2013-01-29 04:13:00,39.6,39.3,30.07,North,359,0.0,0.0,99,0.00,,---,0.00,VWS V14.00,2013-01-29 09:13:00,
2013-01-29 04:15:00,40.1,39.8,30.05,North,358,0.0,0.0,99,0.00,,---,0.00,VWS V14.00,2013-01-29 09:15:00,
2013-01-29 04:18:00,39.9,39.6,30.05,NE,49,0.0,0.0,99,0.00,,---,0.00,VWS V14.00,2013-01-29 09:18:00,
2013-01-29 04:21:00,39.7,39.4,30.05,NE,49,0.0,0.0,99,0.00,,---,0.00,VWS V14.00,2013-01-29 09:21:00,
2013-01-29 04:22:00,39.9,39.6,30.06,North,358,0.0,0.0,99,0.00,,---,0.00,VWS V14.00,2013-01-29 09:22:00,
2013-01-29 04:24:00,39.5,39.2,30.05,NE,49,0.0,0.0,99,0.00,,---,0.00,VWS V14.00,2013-01-29 09:24:00,
2013-01-29 04:27:00,39.4,39.1,30.05,NE,37,0.0,0.0,99,0.00,,---,0.00,VWS V14.00,2013-01-29 09:27:00,
2013-01-29 04:30:00,39.3,39.0,30.05,NE,37,0.0,0.0,99,0.00,,---,0.00,VWS V14.00,2013-01-29 09:30:00,
2013-01-29 04:33:00,39.1,38.6,30.05,NE,37,0.0,0.0,98,0.00,,---,0.00,VWS V14.00,2013-01-29 09:33:00,
2013-01-29 04:34:00,40.1,39.8,30.06,North,359,0.0,0.0,99,0.00,,---,0.00,VWS V14.00,2013-01-29 09:34:00,
2013-01-29 04:36:00,39.1,38.8,30.05,NE,44,0.0,0.0,99,0.00,,---,0.00,VWS V14.00,2013-01-29 09:36:00,
2013-01-29 04:39:00,39.1,38.8,30.05,NE,43,0.0,0.0,99,0.00,,---,0.00,VWS V14.00,2013-01-29 09:39:00,
2013-01-29 04:42:00,39.0,38.7,30.05,NE,44,0.0,0.0,99,0.00,,---,0.00,VWS V14.00,2013-01-29 09:42:00,
2013-01-29 04:45:00,38.9,38.6,30.05,NE,44,0.0,0.0,99,0.00,,---,0.00,VWS V14.00,2013-01-29 09:45:00,
2013-01-29 04:57:00,39.3,39.0,30.04,NE,44,0.0,0.0,99,0.00,,---,0.00,VWS V14.00,2013-01-29 09:57:00,
2013-01-29 05:00:00,39.3,39.0,30.04,NE,44,0.0,0.0,99,0.00,,---,0.00,VWS V14.00,2013-01-29 10:00:00,
2013-01-29 05:03:00,39.3,39.0,30.04,NE,44,0.0,0.0,99,0.00,,---,0.00,VWS V14.00,2013-01-29 10:03:00,
2013-01-29 05:06:00,39.3,39.0,30.04,NE,44,0.0,0.0,99,0.00,,---,0.00,VWS V14.00,2013-01-29 10:06:00,
2013-01-29 05:09:00,39.3,39.0,30.03,NE,44,0.0,0.0,99,0.00,,---,0.00,VWS V14.00,2013-01-29 10:09:00,
2013-01-29 05:12:00,39.3,39.0,30.03,NE,44,0.0,0.0,99,0.00,,---,0.00,VWS V14.00,2013-01-29 10:12:00,
2013-01-29 05:13:00,38.8,38.5,30.04,NE,44,0.0,0.0,99,0.00,,---,0.00,VWS V14.00,2013-01-29 10:13:00,
2013-01-29 05:15:00,39.3,39.0,30.03,NE,44,0.0,0.0,99,0.00,,---,0.00,VWS V14.00,2013-01-29 10:15:00,
2013-01-29 05:18:00,39.3,39.0,30.03,NE,44,0.0,0.0,99,0.00,,---,0.00,VWS V14.00,2013-01-29 10:18:00,
2013-01-29 05:19:00,39.3,39.0,30.04,NE,44,0.0,0.0,99,0.00,,---,0.00,VWS V14.00,2013-01-29 10:19:00,
2013-01-29 05:21:00,39.3,39.0,30.03,NE,44,0.0,0.0,99,0.00,,---,0.00,VWS V14.00,2013-01-29 10:21:00,
2013-01-29 05:24:00,39.3,39.0,30.03,NE,44,0.0,0.0,99,0.00,,---,0.00,VWS V14.00,2013-01-29 10:24:00,
2013-01-29 05:27:00,39.3,39.0,30.03,NE,44,0.0,0.0,99,0.00,,---,0.00,VWS V14.00,2013-01-29 10:27:00,
2013-01-29 05:30:00,39.3,39.0,30.03,NE,44,0.0,0.0,99,0.00,,---,0.00,VWS V14.00,2013-01-29 10:30:00,
2013-01-29 05:33:00,39.3,39.0,30.03,NE,44,0.0,0.0,99,0.00,,---,0.00,VWS V14.00,2013-01-29 10:33:00,
2013-01-29 05:36:00,39.3,39.0,30.03,NE,44,0.0,0.0,99,0.00,,---,0.00,VWS V14.00,2013-01-29 10:36:00,
2013-01-29 05:39:00,39.3,39.0,30.03,NE,44,0.0,0.0,99,0.00,,---,0.00,VWS V14.00,2013-01-29 10:39:00,
2013-01-29 05:42:00,39.3,39.0,30.04,NE,44,0.0,0.0,99,0.00,,---,0.00,VWS V14.00,2013-01-29 10:42:00,
2013-01-29 05:45:00,39.3,39.0,30.04,NE,44,0.0,0.0,99,0.00,,---,0.00,VWS V14.00,2013-01-29 10:45:00,
2013-01-29 05:48:00,39.3,39.0,30.04,NE,44,0.0,0.0,99,0.00,,---,0.00,VWS V14.00,2013-01-29 10:48:00,
2013-01-29 05:51:00,39.3,39.0,30.04,NE,44,0.0,0.0,99,0.00,,---,0.00,VWS V14.00,2013-01-29 10:51:00,
2013-01-29 05:54:00,39.3,39.0,30.04,NE,44,0.0,0.0,99,0.00,,---,0.00,VWS V14.00,2013-01-29 10:54:00,
2013-01-29 05:57:00,39.3,39.0,30.04,NE,44,0.0,0.0,99,0.00,,---,0.00,VWS V14.00,2013-01-29 10:57:00,
2013-01-29 06:00:00,39.3,39.0,30.04,NE,44,0.0,0.0,99,0.00,,---,0.00,VWS V14.00,2013-01-29 11:00:00,
2013-01-29 06:03:00,39.3,39.0,30.04,NE,44,0.0,0.0,99,0.00,,---,0.00,VWS V14.00,2013-01-29 11:03:00,
2013-01-29 06:07:00,39.3,39.0,30.03,NE,44,0.0,0.0,99,0.00,,---,0.00,VWS V14.00,2013-01-29 11:07:00,
2013-01-29 06:10:00,39.3,39.0,30.03,NE,44,0.0,0.0,99,0.00,,---,0.00,VWS V14.00,2013-01-29 11:10:00,
2013-01-29 06:13:00,39.3,39.0,30.03,NE,44,0.0,0.0,99,0.00,,---,0.00,VWS V14.00,2013-01-29 11:13:00,
2013-01-29 06:16:00,39.3,39.0,30.03,NE,44,0.0,0.0,99,0.00,,---,0.00,VWS V14.00,2013-01-29 11:16:00,
2013-01-29 06:19:00,39.3,39.0,30.03,NE,44,0.0,0.0,99,0.00,,---,0.00,VWS V14.00,2013-01-29 11:19:00,
2013-01-29 06:22:00,39.3,39.0,30.03,NE,44,0.0,0.0,99,0.00,,---,0.00,VWS V14.00,2013-01-29 11:22:00,
2013-01-29 06:25:00,39.3,39.0,30.03,NE,44,0.0,0.0,99,0.00,,---,0.00,VWS V14.00,2013-01-29 11:25:00,
2013-01-29 06:28:00,39.3,39.0,30.03,NE,44,0.0,0.0,99,0.00,,---,0.00,VWS V14.00,2013-01-29 11:28:00,
2013-01-29 06:30:00,39.3,39.0,30.03,NE,44,0.0,0.0,99,0.00,,---,0.00,VWS V14.00,2013-01-29 11:30:00,
2013-01-29 06:31:00,39.3,39.0,30.03,NE,44,0.0,0.0,99,0.00,,---,0.00,VWS V14.00,2013-01-29 11:31:00,
2013-01-29 06:34:00,39.3,39.0,30.03,NE,44,0.0,0.0,99,0.00,,---,0.00,VWS V14.00,2013-01-29 11:34:00,
2013-01-29 06:37:00,39.3,39.0,30.04,NE,44,0.0,0.0,99,0.00,,---,0.00,VWS V14.00,2013-01-29 11:37:00,
2013-01-29 06:40:00,39.3,39.0,30.04,NE,44,0.0,0.0,99,0.00,,---,0.00,VWS V14.00,2013-01-29 11:40:00,
2013-01-29 06:43:00,39.3,39.0,30.04,NE,44,0.0,0.0,99,0.00,,---,0.00,VWS V14.00,2013-01-29 11:43:00,
2013-01-29 06:46:00,39.3,39.0,30.04,NE,44,0.0,0.0,99,0.00,,---,0.00,VWS V14.00,2013-01-29 11:46:00,
2013-01-29 06:49:00,39.3,39.0,30.04,NE,44,0.0,0.0,99,0.00,,---,0.00,VWS V14.00,2013-01-29 11:49:00,
2013-01-29 06:52:00,39.3,39.0,30.04,NE,44,0.0,0.0,99,0.00,,---,0.00,VWS V14.00,2013-01-29 11:52:00,
2013-01-29 06:55:00,39.3,39.0,30.04,NE,44,0.0,0.0,99,0.00,,---,0.00,VWS V14.00,2013-01-29 11:55:00,
2013-01-29 06:58:00,39.3,39.0,30.04,NE,44,0.0,0.0,99,0.00,,---,0.00,VWS V14.00,2013-01-29 11:58:00,
2013-01-29 07:00:00,39.3,39.0,30.04,NE,44,0.0,0.0,99,0.00,,---,0.00,VWS V14.00,2013-01-29 12:00:00,
2013-01-29 07:01:00,39.3,39.0,30.04,NE,44,0.0,0.0,99,0.00,,---,0.00,VWS V14.00,2013-01-29 12:01:00,
2013-01-29 07:04:00,39.3,39.0,30.04,NE,44,0.0,0.0,99,0.00,,---,0.00,VWS V14.00,2013-01-29 12:04:00,
2013-01-29 07:07:00,39.3,39.0,30.04,NE,44,0.0,0.0,99,0.00,,---,0.00,VWS V14.00,2013-01-29 12:07:00,
2013-01-29 07:10:00,39.3,39.0,30.04,NE,44,0.0,0.0,99,0.00,,---,0.00,VWS V14.00,2013-01-29 12:10:00,
2013-01-29 07:13:00,39.3,39.0,30.04,NE,44,0.0,0.0,99,0.00,,---,0.00,VWS V14.00,2013-01-29 12:13:00,
2013-01-29 07:16:00,39.3,39.0,30.04,NE,44,0.0,0.0,99,0.00,,---,0.00,VWS V14.00,2013-01-29 12:16:00,
2013-01-29 07:19:00,39.3,39.0,30.04,NE,44,0.0,0.0,99,0.00,,---,0.00,VWS V14.00,2013-01-29 12:19:00,
2013-01-29 07:22:00,39.3,39.0,30.04,NE,44,0.0,0.0,99,0.00,,---,0.00,VWS V14.00,2013-01-29 12:22:00,
2013-01-29 07:25:00,39.3,39.0,30.04,NE,44,0.0,0.0,99,0.00,,---,0.00,VWS V14.00,2013-01-29 12:25:00,
2013-01-29 07:28:00,39.3,39.0,30.04,NE,44,0.0,0.0,99,0.00,,---,0.00,VWS V14.00,2013-01-29 12:28:00,
2013-01-29 07:30:00,39.3,39.0,30.04,NE,44,0.0,0.0,99,0.00,,---,0.00,VWS V14.00,2013-01-29 12:30:00,
2013-01-29 07:31:00,39.3,39.0,30.03,NE,44,0.0,0.0,99,0.00,,---,0.00,VWS V14.00,2013-01-29 12:31:00,
2013-01-29 07:34:00,39.3,39.0,30.03,NE,44,0.0,0.0,99,0.00,,---,0.00,VWS V14.00,2013-01-29 12:34:00,
2013-01-29 07:37:00,39.3,39.0,30.03,NE,44,0.0,0.0,99,0.00,,---,0.00,VWS V14.00,2013-01-29 12:37:00,
2013-01-29 07:40:00,39.3,39.0,30.03,NE,44,0.0,0.0,99,0.00,,---,0.00,VWS V14.00,2013-01-29 12:40:00,
2013-01-29 07:43:00,39.3,39.0,30.03,NE,44,0.0,0.0,99,0.00,,---,0.00,VWS V14.00,2013-01-29 12:43:00,
2013-01-29 07:46:00,39.3,39.0,30.03,NE,44,0.0,0.0,99,0.00,,---,0.00,VWS V14.00,2013-01-29 12:46:00,
2013-01-29 07:49:00,39.3,39.0,30.03,NE,44,0.0,0.0,99,0.00,,---,0.00,VWS V14.00,2013-01-29 12:49:00,
2013-01-29 07:52:00,39.0,38.7,30.03,NNW,330,0.0,0.0,99,0.00,,---,0.00,VWS V14.00,2013-01-29 12:52:00,
2013-01-29 07:55:00,39.1,38.8,30.03,NNW,330,0.0,0.0,99,0.00,,---,0.00,VWS V14.00,2013-01-29 12:55:00,
2013-01-29 07:58:00,39.2,38.9,30.03,NNW,330,0.0,0.0,99,0.00,,---,0.00,VWS V14.00,2013-01-29 12:58:00,
2013-01-29 08:00:00,39.3,39.0,30.03,NNW,330,0.0,0.0,99,0.00,,---,0.00,VWS V14.00,2013-01-29 13:00:00,
2013-01-29 08:01:00,39.3,39.0,30.04,NNW,330,0.0,0.0,99,0.00,,---,0.00,VWS V14.00,2013-01-29 13:01:00,
2013-01-29 08:04:00,39.4,39.1,30.03,NNW,330,0.0,0.0,99,0.00,,---,0.00,VWS V14.00,2013-01-29 13:04:00,
2013-01-29 08:07:00,39.4,39.1,30.03,NNW,330,0.0,0.0,99,0.00,,---,0.00,VWS V14.00,2013-01-29 13:07:00,
2013-01-29 08:10:00,39.4,39.1,30.04,NNW,330,0.0,0.0,99,0.00,,---,0.00,VWS V14.00,2013-01-29 13:10:00,
2013-01-29 08:13:00,39.4,39.1,30.04,NNW,330,0.0,0.0,99,0.00,,---,0.00,VWS V14.00,2013-01-29 13:13:00,
2013-01-29 08:16:00,39.4,39.1,30.04,NNW,334,0.0,0.0,99,0.00,,---,0.00,VWS V14.00,2013-01-29 13:16:00,
2013-01-29 08:19:00,39.4,39.1,30.04,NNW,334,0.0,0.0,99,0.00,,---,0.00,VWS V14.00,2013-01-29 13:19:00,
2013-01-29 08:22:00,39.4,39.1,30.04,NNE,26,0.0,0.0,99,0.00,,---,0.00,VWS V14.00,2013-01-29 13:22:00,
2013-01-29 08:25:00,39.5,39.2,30.04,NNE,28,0.0,0.0,99,0.00,,---,0.00,VWS V14.00,2013-01-29 13:25:00,
2013-01-29 08:28:00,39.6,39.3,30.04,NNE,27,0.0,0.0,99,0.00,,---,0.00,VWS V14.00,2013-01-29 13:28:00,
2013-01-29 08:30:00,39.6,39.3,30.04,NNE,27,0.0,0.0,99,0.00,,---,0.00,VWS V14.00,2013-01-29 13:30:00,
2013-01-29 08:31:00,39.6,39.3,30.04,NNE,27,0.0,0.0,99,0.00,,---,0.00,VWS V14.00,2013-01-29 13:31:00,
2013-01-29 08:34:00,39.8,39.5,30.04,NNE,27,0.0,0.0,99,0.00,,---,0.00,VWS V14.00,2013-01-29 13:34:00,
2013-01-29 08:37:00,40.0,39.7,30.04,NNE,27,0.0,0.0,99,0.00,,---,0.00,VWS V14.00,2013-01-29 13:37:00,
2013-01-29 08:40:00,40.1,39.8,30.04,NNE,26,0.0,0.0,99,0.00,,---,0.00,VWS V14.00,2013-01-29 13:40:00,
2013-01-29 08:43:00,40.3,40.0,30.04,NE,43,1.0,1.0,99,0.00,,---,0.00,VWS V14.00,2013-01-29 13:43:00,
2013-01-29 08:46:00,40.5,40.2,30.03,North,8,1.0,1.0,99,0.00,,---,0.00,VWS V14.00,2013-01-29 13:46:00,
2013-01-29 08:49:00,40.8,40.5,30.04,NE,41,0.0,1.0,99,0.00,,---,0.00,VWS V14.00,2013-01-29 13:49:00,
2013-01-29 08:52:00,41.0,40.7,30.03,NW,322,0.0,1.0,99,0.00,,---,0.00,VWS V14.00,2013-01-29 13:52:00,
2013-01-29 08:55:00,41.2,40.9,30.04,North,360,0.0,1.0,99,0.00,,---,0.00,VWS V14.00,2013-01-29 13:55:00,
2013-01-29 08:58:00,41.4,41.1,30.04,NNE,20,0.0,1.0,99,0.00,,---,0.00,VWS V14.00,2013-01-29 13:58:00,
2013-01-29 09:00:00,41.5,41.2,30.04,East,81,0.0,1.0,99,0.00,,---,0.00,VWS V14.00,2013-01-29 14:00:00,
2013-01-29 09:01:00,41.5,41.2,30.04,ENE,60,0.0,0.0,99,0.00,,---,0.00,VWS V14.00,2013-01-29 14:01:00,
2013-01-29 09:04:00,41.8,41.5,30.04,NNE,33,0.0,0.0,99,0.00,,---,0.00,VWS V14.00,2013-01-29 14:04:00,
2013-01-29 09:07:00,41.8,41.5,30.04,NE,40,0.0,0.0,99,0.00,,---,0.00,VWS V14.00,2013-01-29 14:07:00,
2013-01-29 09:13:00,41.8,41.5,30.04,ENE,65,0.0,0.0,99,0.00,,---,0.00,VWS V14.00,2013-01-29 14:13:00,
2013-01-29 09:16:00,41.9,41.6,30.04,NE,53,0.0,0.0,99,0.00,,---,0.00,VWS V14.00,2013-01-29 14:16:00,
2013-01-29 09:19:00,42.0,41.7,30.04,NE,52,0.0,0.0,99,0.00,,---,0.00,VWS V14.00,2013-01-29 14:19:00,
2013-01-29 09:22:00,42.0,41.7,30.04,NE,46,0.0,0.0,99,0.00,,---,0.00,VWS V14.00,2013-01-29 14:22:00,
2013-01-29 09:25:00,42.3,42.0,30.04,SE,139,0.0,0.0,99,0.00,,---,0.00,VWS V14.00,2013-01-29 14:25:00,
2013-01-29 09:30:00,42.5,42.2,30.03,SE,139,0.0,0.0,99,0.00,,---,0.00,VWS V14.00,2013-01-29 14:30:00,
2013-01-29 09:35:00,41.7,41.4,30.04,NE,53,0.0,0.0,99,0.00,,---,0.00,VWS V14.00,2013-01-29 14:35:00,
2013-01-29 09:37:00,43.0,42.7,30.03,SE,138,0.0,0.0,99,0.00,,---,0.00,VWS V14.00,2013-01-29 14:37:00,
2013-01-29 09:40:00,43.2,42.9,30.03,SE,139,0.0,0.0,99,0.00,,---,0.00,VWS V14.00,2013-01-29 14:40:00,
2013-01-29 09:43:00,43.2,42.9,30.03,SE,139,0.0,0.0,99,0.00,,---,0.00,VWS V14.00,2013-01-29 14:43:00,
2013-01-29 09:46:00,43.3,43.0,30.03,SE,134,0.0,0.0,99,0.00,,---,0.00,VWS V14.00,2013-01-29 14:46:00,
2013-01-29 09:49:00,43.5,43.2,30.03,ESE,120,0.0,0.0,99,0.00,,---,0.00,VWS V14.00,2013-01-29 14:49:00,
2013-01-29 09:52:00,44.0,43.7,30.03,ESE,120,0.0,0.0,99,0.00,,---,0.00,VWS V14.00,2013-01-29 14:52:00,
2013-01-29 09:53:00,42.3,42.0,30.03,SE,138,0.0,0.0,99,0.00,,---,0.00,VWS V14.00,2013-01-29 14:53:00,
2013-01-29 09:59:00,42.7,42.4,30.03,SE,139,0.0,0.0,99,0.00,,---,0.00,VWS V14.00,2013-01-29 14:59:00,
2013-01-29 10:00:00,44.4,44.1,30.03,NE,46,0.0,0.0,99,0.00,,---,0.00,VWS V14.00,2013-01-29 15:00:00,
2013-01-29 10:10:00,44.2,43.9,30.03,NE,51,2.0,3.0,99,0.00,,---,0.00,VWS V14.00,2013-01-29 15:10:00,
2013-01-29 10:13:00,44.3,44.0,30.03,NE,51,0.0,3.0,99,0.00,,---,0.00,VWS V14.00,2013-01-29 15:13:00,
2013-01-29 10:16:00,44.5,44.2,30.03,NE,34,0.0,3.0,99,0.00,,---,0.00,VWS V14.00,2013-01-29 15:16:00,
2013-01-29 10:20:00,44.3,44.0,30.03,ESE,120,0.0,0.0,99,0.00,,---,0.00,VWS V14.00,2013-01-29 15:20:00,
2013-01-29 10:26:00,44.3,44.0,30.03,NNE,30,1.0,2.0,99,0.00,,---,0.00,VWS V14.00,2013-01-29 15:26:00,
2013-01-29 10:30:00,45.6,45.3,30.03,NE,44,0.0,3.0,99,0.00,,---,0.00,VWS V14.00,2013-01-29 15:30:00,
2013-01-29 10:31:00,45.8,45.5,30.02,NE,44,0.0,0.0,99,0.00,,---,0.00,VWS V14.00,2013-01-29 15:31:00,
2013-01-29 10:32:00,44.2,43.9,30.04,NE,47,2.0,3.0,99,0.00,,---,0.00,VWS V14.00,2013-01-29 15:32:00,
2013-01-29 10:34:00,46.0,45.7,30.03,NE,44,0.0,0.0,99,0.00,,---,0.00,VWS V14.00,2013-01-29 15:34:00,
2013-01-29 10:37:00,46.1,45.8,30.02,NE,44,0.0,0.0,99,0.00,,---,0.00,VWS V14.00,2013-01-29 15:37:00,
2013-01-29 10:40:00,46.5,46.2,30.03,NE,44,0.0,0.0,99,0.00,,---,0.00,VWS V14.00,2013-01-29 15:40:00,
2013-01-29 10:44:00,44.9,44.6,30.03,NNE,33,0.0,3.0,99,0.00,,---,0.00,VWS V14.00,2013-01-29 15:44:00,
2013-01-29 10:50:00,45.3,45.0,30.03,NE,44,0.0,3.0,99,0.00,,---,0.00,VWS V14.00,2013-01-29 15:50:00,
2013-01-29 11:08:00,46.7,46.4,30.02,NE,44,0.0,0.0,99,0.00,,---,0.00,VWS V14.00,2013-01-29 16:08:00,
2013-01-29 12:26:00,51.7,49.5,29.96,NE,41,0.0,0.0,92,0.00,,---,0.00,VWS V14.00,2013-01-29 17:26:00,
2013-01-29 12:29:00,51.7,49.5,29.95,NE,41,0.0,0.0,92,0.00,,---,0.00,VWS V14.00,2013-01-29 17:29:00,
2013-01-29 12:30:00,51.7,49.5,29.95,NE,41,0.0,0.0,92,0.00,,---,0.00,VWS V14.00,2013-01-29 17:30:00,
2013-01-29 12:32:00,51.7,49.5,29.95,NNE,33,0.0,0.0,92,0.00,,---,0.00,VWS V14.00,2013-01-29 17:32:00,
2013-01-29 12:35:00,51.8,49.5,29.95,NNE,33,0.0,0.0,92,0.00,,---,0.00,VWS V14.00,2013-01-29 17:35:00,
2013-01-29 12:41:00,52.0,50.0,29.94,NNE,33,0.0,0.0,93,0.00,,---,0.00,VWS V14.00,2013-01-29 17:41:00,
2013-01-29 12:44:00,52.1,50.1,29.94,NNW,333,0.0,0.0,93,0.00,,---,0.00,VWS V14.00,2013-01-29 17:44:00,
2013-01-29 12:47:00,52.1,50.1,29.94,NNW,334,0.0,0.0,93,0.00,,---,0.00,VWS V14.00,2013-01-29 17:47:00,
2013-01-29 12:50:00,52.2,50.2,29.94,NNW,333,0.0,0.0,93,0.00,,---,0.00,VWS V14.00,2013-01-29 17:50:00,
2013-01-29 12:53:00,52.3,50.3,29.94,NNW,333,0.0,0.0,93,0.00,,---,0.00,VWS V14.00,2013-01-29 17:53:00,
2013-01-29 12:56:00,52.4,50.4,29.93,WNW,288,0.0,0.0,93,0.00,,---,0.00,VWS V14.00,2013-01-29 17:56:00,
2013-01-29 12:59:00,52.5,50.8,29.93,WNW,288,0.0,0.0,94,0.00,,---,0.00,VWS V14.00,2013-01-29 17:59:00,
2013-01-29 13:00:00,52.5,50.8,29.93,WNW,288,0.0,0.0,94,0.00,,---,0.00,VWS V14.00,2013-01-29 18:00:00,
2013-01-29 13:02:00,52.6,50.9,29.93,WNW,288,0.0,0.0,94,0.00,,---,0.00,VWS V14.00,2013-01-29 18:02:00,
2013-01-29 13:05:00,52.7,51.3,29.93,WNW,288,0.0,0.0,95,0.00,,---,0.00,VWS V14.00,2013-01-29 18:05:00,
2013-01-29 13:08:00,52.7,51.0,29.93,WNW,288,0.0,0.0,94,0.00,,---,0.00,VWS V14.00,2013-01-29 18:08:00,
2013-01-29 13:11:00,52.8,51.4,29.93,WNW,288,0.0,0.0,95,0.00,,---,0.00,VWS V14.00,2013-01-29 18:11:00,
2013-01-29 13:14:00,52.9,51.5,29.93,WNW,288,0.0,0.0,95,0.00,,---,0.00,VWS V14.00,2013-01-29 18:14:00,
2013-01-29 13:17:00,53.2,52.1,29.93,WNW,288,0.0,0.0,96,0.00,,---,0.00,VWS V14.00,2013-01-29 18:17:00,
2013-01-29 13:20:00,53.5,52.4,29.93,WNW,288,0.0,0.0,96,0.00,,---,0.00,VWS V14.00,2013-01-29 18:20:00,
2013-01-29 13:23:00,54.0,53.5,29.93,SE,131,0.0,0.0,98,0.00,,---,0.00,VWS V14.00,2013-01-29 18:23:00,
2013-01-29 13:26:00,54.6,54.0,29.92,SSE,160,0.0,0.0,98,0.00,,---,0.00,VWS V14.00,2013-01-29 18:26:00,
2013-01-29 13:29:00,54.8,54.2,29.92,SSE,158,0.0,0.0,98,0.00,,---,0.00,VWS V14.00,2013-01-29 18:29:00,
2013-01-29 13:30:00,54.9,54.3,29.92,SSE,158,0.0,0.0,98,0.00,,---,0.00,VWS V14.00,2013-01-29 18:30:00,
2013-01-29 13:32:00,54.9,54.1,29.92,SSE,158,0.0,0.0,97,0.00,,---,0.00,VWS V14.00,2013-01-29 18:32:00,
2013-01-29 13:35:00,55.1,54.3,29.92,SSE,150,0.0,0.0,97,0.00,,---,0.00,VWS V14.00,2013-01-29 18:35:00,
2013-01-29 13:38:00,55.1,54.3,29.92,SSE,150,0.0,0.0,97,0.00,,---,0.00,VWS V14.00,2013-01-29 18:38:00,
2013-01-29 13:41:00,55.3,54.5,29.92,SSE,160,0.0,0.0,97,0.01,,---,0.01,VWS V14.00,2013-01-29 18:41:00,
2013-01-29 13:44:00,55.7,55.2,29.92,SSE,150,0.0,0.0,98,0.01,,---,0.01,VWS V14.00,2013-01-29 18:44:00,
2013-01-29 13:47:00,55.8,55.2,29.91,SE,132,0.0,0.0,98,0.01,,---,0.01,VWS V14.00,2013-01-29 18:47:00,
2013-01-29 13:50:00,55.9,55.3,29.91,SSE,148,0.0,0.0,98,0.01,,---,0.01,VWS V14.00,2013-01-29 18:50:00,
2013-01-29 13:53:00,55.9,55.3,29.91,SE,139,0.0,0.0,98,0.01,,---,0.01,VWS V14.00,2013-01-29 18:53:00,
2013-01-29 13:56:00,56.1,55.5,29.91,SE,144,0.0,0.0,98,0.01,,---,0.01,VWS V14.00,2013-01-29 18:56:00,
2013-01-29 13:59:00,56.1,55.5,29.91,SSE,164,0.0,0.0,98,0.02,,---,0.02,VWS V14.00,2013-01-29 18:59:00,
2013-01-29 14:00:00,56.1,55.5,29.91,SSE,163,0.0,0.0,98,0.02,,---,0.02,VWS V14.00,2013-01-29 19:00:00,
2013-01-29 14:02:00,56.2,55.7,29.91,SSE,148,0.0,0.0,98,0.02,,---,0.02,VWS V14.00,2013-01-29 19:02:00,
2013-01-29 14:05:00,56.3,55.8,29.90,SE,146,0.0,0.0,98,0.03,,---,0.03,VWS V14.00,2013-01-29 19:05:00,
2013-01-29 14:08:00,56.5,55.9,29.90,South,173,0.0,0.0,98,0.03,,---,0.03,VWS V14.00,2013-01-29 19:08:00,
2013-01-29 14:11:00,56.7,56.1,29.90,SSE,153,0.0,0.0,98,0.03,,---,0.03,VWS V14.00,2013-01-29 19:11:00,
2013-01-29 14:14:00,56.8,56.2,29.90,SE,136,0.0,0.0,98,0.03,,---,0.03,VWS V14.00,2013-01-29 19:14:00,
2013-01-29 14:17:00,56.9,56.3,29.90,SW,233,0.0,0.0,98,0.03,,---,0.03,VWS V14.00,2013-01-29 19:17:00,
2013-01-29 14:20:00,56.8,56.2,29.90,SW,233,0.0,0.0,98,0.03,,---,0.03,VWS V14.00,2013-01-29 19:20:00,
2013-01-29 14:23:00,56.8,56.2,29.90,SW,234,0.0,0.0,98,0.03,,---,0.03,VWS V14.00,2013-01-29 19:23:00,
2013-01-29 14:26:00,56.8,56.2,29.90,SW,234,0.0,0.0,98,0.03,,---,0.03,VWS V14.00,2013-01-29 19:26:00,
2013-01-29 14:29:00,56.8,56.2,29.90,SW,233,0.0,0.0,98,0.03,,---,0.03,VWS V14.00,2013-01-29 19:29:00,
2013-01-29 14:30:00,56.8,56.2,29.90,SW,233,0.0,0.0,98,0.03,,---,0.03,VWS V14.00,2013-01-29 19:30:00,
2013-01-29 14:32:00,56.8,56.2,29.90,SW,233,0.0,0.0,98,0.03,,---,0.03,VWS V14.00,2013-01-29 19:32:00,
2013-01-29 14:39:00,56.9,56.3,29.90,SW,234,0.0,0.0,98,0.03,,---,0.03,VWS V14.00,2013-01-29 19:39:00,
2013-01-29 14:42:00,57.0,56.4,29.90,SW,233,0.0,0.0,98,0.03,,---,0.03,VWS V14.00,2013-01-29 19:42:00,
2013-01-29 14:45:00,57.0,56.4,29.90,SW,233,0.0,0.0,98,0.03,,---,0.03,VWS V14.00,2013-01-29 19:45:00,
2013-01-29 14:48:00,57.1,56.5,29.90,SW,233,0.0,0.0,98,0.03,,---,0.03,VWS V14.00,2013-01-29 19:48:00,
2013-01-29 14:51:00,57.1,56.5,29.90,SW,234,0.0,0.0,98,0.03,,---,0.03,VWS V14.00,2013-01-29 19:51:00,
2013-01-29 14:54:00,57.1,56.5,29.89,SW,233,0.0,0.0,98,0.03,,---,0.03,VWS V14.00,2013-01-29 19:54:00,
2013-01-29 14:57:00,57.2,56.6,29.89,SW,234,0.0,0.0,98,0.03,,---,0.03,VWS V14.00,2013-01-29 19:57:00,
2013-01-29 15:00:00,57.3,56.7,29.89,SE,139,0.0,0.0,98,0.03,,---,0.03,VWS V14.00,2013-01-29 20:00:00,
2013-01-29 15:03:00,57.4,56.8,29.89,SE,143,0.0,0.0,98,0.01,,---,0.03,VWS V14.00,2013-01-29 20:03:00,
2013-01-29 15:06:00,57.4,56.8,29.89,SE,135,0.0,0.0,98,0.01,,---,0.03,VWS V14.00,2013-01-29 20:06:00,
2013-01-29 15:09:00,57.5,56.9,29.89,SSE,165,0.0,0.0,98,0.01,,---,0.03,VWS V14.00,2013-01-29 20:09:00,
2013-01-29 15:12:00,57.7,57.1,29.88,SSE,160,0.0,0.0,98,0.01,,---,0.03,VWS V14.00,2013-01-29 20:12:00,
2013-01-29 15:15:00,57.8,57.2,29.88,SSE,166,4.0,5.0,98,0.01,,---,0.03,VWS V14.00,2013-01-29 20:15:00,
2013-01-29 15:18:00,58.0,57.4,29.88,SSE,155,4.0,5.0,98,0.01,,---,0.03,VWS V14.00,2013-01-29 20:18:00,
2013-01-29 15:21:00,58.3,57.7,29.88,SE,127,4.0,5.0,98,0.01,,---,0.03,VWS V14.00,2013-01-29 20:21:00,
2013-01-29 15:24:00,58.5,57.9,29.88,SSE,160,2.0,5.0,98,0.01,,---,0.03,VWS V14.00,2013-01-29 20:24:00,
2013-01-29 15:27:00,58.7,57.8,29.88,SSE,150,4.0,5.0,97,0.01,,---,0.03,VWS V14.00,2013-01-29 20:27:00,
2013-01-29 15:30:00,58.7,57.8,29.88,SSE,160,3.0,5.0,97,0.01,,---,0.03,VWS V14.00,2013-01-29 20:30:00,
2013-01-29 15:33:00,58.8,57.7,29.88,South,187,1.0,4.0,96,0.00,,---,0.03,VWS V14.00,2013-01-29 20:33:00,
2013-01-29 15:36:00,59.0,57.9,29.88,SSE,156,2.0,4.0,96,0.00,,---,0.03,VWS V14.00,2013-01-29 20:36:00,
2013-01-29 15:39:00,59.1,58.0,29.87,SSE,150,2.0,4.0,96,0.00,,---,0.03,VWS V14.00,2013-01-29 20:39:00,
2013-01-29 15:42:00,59.3,58.2,29.87,South,173,3.0,4.0,96,0.00,,---,0.03,VWS V14.00,2013-01-29 20:42:00,
2013-01-29 15:45:00,59.4,58.0,29.87,SSE,150,4.0,6.0,95,0.00,,---,0.03,VWS V14.00,2013-01-29 20:45:00,
2013-01-29 15:48:00,59.5,57.8,29.87,SSE,167,1.0,6.0,94,0.00,,---,0.03,VWS V14.00,2013-01-29 20:48:00,
2013-01-29 15:51:00,59.6,57.9,29.87,SSE,156,4.0,6.0,94,0.00,,---,0.03,VWS V14.00,2013-01-29 20:51:00,
2013-01-29 15:54:00,59.6,57.9,29.87,SSE,166,5.0,6.0,94,0.00,,---,0.03,VWS V14.00,2013-01-29 20:54:00,
2013-01-29 15:57:00,59.6,57.9,29.87,South,186,3.0,6.0,94,0.00,,---,0.03,VWS V14.00,2013-01-29 20:57:00,
2013-01-29 16:00:00,59.6,57.9,29.87,South,176,4.0,6.0,94,0.00,,---,0.03,VWS V14.00,2013-01-29 21:00:00,
2013-01-29 16:03:00,59.5,57.5,29.87,SSE,150,4.0,5.0,93,0.00,,---,0.03,VWS V14.00,2013-01-29 21:03:00,
2013-01-29 16:06:00,59.4,57.4,29.87,SSE,160,2.0,5.0,93,0.00,,---,0.03,VWS V14.00,2013-01-29 21:06:00,
2013-01-29 16:09:00,59.3,57.3,29.87,SSE,163,2.0,5.0,93,0.00,,---,0.03,VWS V14.00,2013-01-29 21:09:00,
2013-01-29 16:12:00,59.2,57.2,29.87,South,169,1.0,5.0,93,0.00,,---,0.03,VWS V14.00,2013-01-29 21:12:00,
2013-01-29 16:15:00,59.1,57.4,29.87,SSE,155,2.0,5.0,94,0.00,,---,0.03,VWS V14.00,2013-01-29 21:15:00,
2013-01-29 16:18:00,59.0,57.3,29.87,SSE,160,3.0,5.0,94,0.00,,---,0.03,VWS V14.00,2013-01-29 21:18:00,
2013-01-29 16:21:00,59.0,57.3,29.87,SSE,151,3.0,5.0,94,0.00,,---,0.03,VWS V14.00,2013-01-29 21:21:00,
2013-01-29 16:24:00,58.9,57.2,29.87,South,181,3.0,6.0,94,0.00,,---,0.03,VWS V14.00,2013-01-29 21:24:00,
2013-01-29 16:27:00,58.9,57.2,29.87,South,170,4.0,6.0,94,0.00,,---,0.03,VWS V14.00,2013-01-29 21:27:00,
2013-01-29 16:30:00,58.9,57.2,29.86,South,169,3.0,6.0,94,0.00,,---,0.03,VWS V14.00,2013-01-29 21:30:00,
2013-01-29 16:33:00,58.8,57.1,29.86,WSW,252,1.0,3.0,94,0.00,,---,0.03,VWS V14.00,2013-01-29 21:33:00,
2013-01-29 16:36:00,58.8,57.1,29.86,West,259,1.0,3.0,94,0.00,,---,0.03,VWS V14.00,2013-01-29 21:36:00,
2013-01-29 16:39:00,58.8,57.1,29.86,SW,231,0.0,3.0,94,0.00,,---,0.03,VWS V14.00,2013-01-29 21:39:00,
2013-01-29 16:42:00,58.7,57.0,29.86,WNW,297,0.0,3.0,94,0.00,,---,0.03,VWS V14.00,2013-01-29 21:42:00,
2013-01-29 16:45:00,58.6,57.2,29.86,West,278,2.0,3.0,95,0.00,,---,0.03,VWS V14.00,2013-01-29 21:45:00,
2013-01-29 16:48:00,58.6,57.2,29.86,SW,217,1.0,3.0,95,0.00,,---,0.03,VWS V14.00,2013-01-29 21:48:00,
2013-01-29 16:51:00,58.6,57.2,29.86,SSW,210,1.0,6.0,95,0.00,,---,0.03,VWS V14.00,2013-01-29 21:51:00,
2013-01-29 16:54:00,58.7,57.0,29.86,SSW,207,2.0,7.0,94,0.00,,---,0.03,VWS V14.00,2013-01-29 21:54:00,
2013-01-29 16:57:00,58.9,57.2,29.86,SW,224,4.0,7.0,94,0.00,,---,0.03,VWS V14.00,2013-01-29 21:57:00,
2013-01-29 17:00:00,59.0,57.3,29.86,SW,214,1.0,7.0,94,0.00,,---,0.03,VWS V14.00,2013-01-29 22:00:00,
2013-01-29 17:03:00,59.0,57.0,29.86,SW,232,4.0,7.0,93,0.00,,---,0.03,VWS V14.00,2013-01-29 22:03:00,
2013-01-29 17:06:00,59.1,57.1,29.86,SE,142,3.0,7.0,93,0.00,,---,0.03,VWS V14.00,2013-01-29 22:06:00,
2013-01-29 17:09:00,59.1,57.1,29.86,SW,217,2.0,7.0,93,0.00,,---,0.03,VWS V14.00,2013-01-29 22:09:00,
2013-01-29 17:12:00,59.0,57.0,29.85,SW,219,1.0,7.0,93,0.00,,---,0.03,VWS V14.00,2013-01-29 22:12:00,
2013-01-29 17:15:00,59.0,57.0,29.85,SW,221,4.0,7.0,93,0.00,,---,0.03,VWS V14.00,2013-01-29 22:15:00,
2013-01-29 17:18:00,58.9,56.9,29.85,West,259,1.0,7.0,93,0.00,,---,0.03,VWS V14.00,2013-01-29 22:18:00,
2013-01-29 17:21:00,58.8,56.8,29.85,SSW,210,1.0,7.0,93,0.00,,---,0.03,VWS V14.00,2013-01-29 22:21:00,
2013-01-29 17:24:00,58.7,56.7,29.85,SW,217,1.0,7.0,93,0.00,,---,0.03,VWS V14.00,2013-01-29 22:24:00,
2013-01-29 17:27:00,58.6,56.9,29.85,SW,235,1.0,7.0,94,0.00,,---,0.03,VWS V14.00,2013-01-29 22:27:00,
2013-01-29 17:30:00,58.4,56.7,29.85,West,281,1.0,7.0,94,0.00,,---,0.03,VWS V14.00,2013-01-29 22:30:00,
2013-01-29 17:33:00,58.3,56.6,29.85,SW,225,1.0,1.0,94,0.00,,---,0.03,VWS V14.00,2013-01-29 22:33:00,
2013-01-29 17:36:00,58.1,56.4,29.85,SW,229,0.0,1.0,94,0.00,,---,0.03,VWS V14.00,2013-01-29 22:36:00,
2013-01-29 17:39:00,58.0,56.3,29.84,SW,221,1.0,4.0,94,0.00,,---,0.03,VWS V14.00,2013-01-29 22:39:00,
2013-01-29 17:42:00,57.8,56.4,29.84,WSW,246,1.0,4.0,95,0.00,,---,0.03,VWS V14.00,2013-01-29 22:42:00,
2013-01-29 17:45:00,57.7,56.3,29.85,SW,229,0.0,4.0,95,0.00,,---,0.03,VWS V14.00,2013-01-29 22:45:00,
2013-01-29 17:48:00,57.6,56.2,29.85,SW,229,0.0,4.0,95,0.00,,---,0.03,VWS V14.00,2013-01-29 22:48:00,
2013-01-29 17:51:00,57.5,56.1,29.85,SSE,162,0.0,4.0,95,0.00,,---,0.03,VWS V14.00,2013-01-29 22:51:00,
2013-01-29 17:54:00,57.4,56.3,29.85,SSE,167,0.0,4.0,96,0.00,,---,0.03,VWS V14.00,2013-01-29 22:54:00,
2013-01-29 17:57:00,57.4,56.3,29.85,SSW,210,0.0,4.0,96,0.00,,---,0.03,VWS V14.00,2013-01-29 22:57:00,
2013-01-29 18:00:00,57.4,56.3,29.85,SW,219,0.0,4.0,96,0.00,,---,0.03,VWS V14.00,2013-01-29 23:00:00,
2013-01-29 18:03:00,57.4,56.3,29.85,WSW,245,2.0,5.0,96,0.00,,---,0.03,VWS V14.00,2013-01-29 23:03:00,
2013-01-29 18:06:00,57.6,56.5,29.85,WSW,257,1.0,5.0,96,0.00,,---,0.03,VWS V14.00,2013-01-29 23:06:00,
2013-01-29 18:09:00,57.6,56.2,29.85,WSW,238,1.0,5.0,95,0.00,,---,0.03,VWS V14.00,2013-01-29 23:09:00,
2013-01-29 18:12:00,57.6,56.2,29.85,SW,236,1.0,5.0,95,0.00,,---,0.03,VWS V14.00,2013-01-29 23:12:00,
2013-01-29 18:15:00,57.6,56.2,29.85,WSW,248,1.0,5.0,95,0.00,,---,0.03,VWS V14.00,2013-01-29 23:15:00,
2013-01-29 18:18:00,57.6,56.2,29.85,SSE,160,2.0,5.0,95,0.00,,---,0.03,VWS V14.00,2013-01-29 23:18:00,
2013-01-29 18:21:00,57.5,56.1,29.85,SSW,208,1.0,5.0,95,0.00,,---,0.03,VWS V14.00,2013-01-29 23:21:00,
2013-01-29 18:24:00,57.5,56.1,29.85,SW,218,1.0,5.0,95,0.00,,---,0.03,VWS V14.00,2013-01-29 23:24:00,
2013-01-29 18:27:00,57.5,56.1,29.85,SW,224,1.0,5.0,95,0.00,,---,0.03,VWS V14.00,2013-01-29 23:27:00,
2013-01-29 18:30:00,57.5,56.1,29.84,WSW,240,0.0,5.0,95,0.00,,---,0.03,VWS V14.00,2013-01-29 23:30:00,
2013-01-29 18:34:00,57.4,56.0,29.84,West,274,0.0,0.0,95,0.00,,---,0.03,VWS V14.00,2013-01-29 23:34:00,
2013-01-29 18:37:00,57.3,55.9,29.84,West,274,0.0,0.0,95,0.00,,---,0.03,VWS V14.00,2013-01-29 23:37:00,
2013-01-29 18:40:00,57.2,55.8,29.84,SSE,155,2.0,3.0,95,0.00,,---,0.03,VWS V14.00,2013-01-29 23:40:00,
2013-01-29 18:43:00,57.2,56.1,29.84,South,169,1.0,3.0,96,0.00,,---,0.03,VWS V14.00,2013-01-29 23:43:00,
2013-01-29 18:46:00,57.2,55.8,29.84,South,185,2.0,3.0,95,0.00,,---,0.03,VWS V14.00,2013-01-29 23:46:00,
2013-01-29 18:49:00,57.2,55.8,29.84,SSW,207,3.0,4.0,95,0.00,,---,0.03,VWS V14.00,2013-01-29 23:49:00,
2013-01-29 18:52:00,57.3,55.9,29.84,SW,215,2.0,4.0,95,0.00,,---,0.03,VWS V14.00,2013-01-29 23:52:00,
2013-01-29 18:55:00,57.4,56.0,29.84,SE,131,1.0,4.0,95,0.00,,---,0.03,VWS V14.00,2013-01-29 23:55:00,
2013-01-29 18:58:00,57.5,56.1,29.84,SW,229,5.0,5.0,95,0.00,,---,0.03,VWS V14.00,2013-01-29 23:58:00,
2013-01-29 19:00:00,57.8,56.1,29.84,SSE,160,1.0,7.0,94,0.00,,---,0.03,VWS V14.00,2013-01-30 00:00:00,
2013-01-29 19:01:00,58.0,56.3,29.84,South,174,4.0,6.0,94,0.00,,---,0.03,VWS V14.00,2013-01-30 00:01:00,
2013-01-29 19:04:00,58.7,56.4,29.84,SW,226,4.0,6.0,92,0.00,,---,0.03,VWS V14.00,2013-01-30 00:04:00,
2013-01-29 19:07:00,59.0,56.4,29.84,South,172,3.0,6.0,91,0.00,,---,0.03,VWS V14.00,2013-01-30 00:07:00,
2013-01-29 19:10:00,59.0,56.4,29.84,SE,128,2.0,6.0,91,0.00,,---,0.03,VWS V14.00,2013-01-30 00:10:00,
2013-01-29 19:13:00,59.0,56.4,29.84,SW,214,2.0,6.0,91,0.00,,---,0.03,VWS V14.00,2013-01-30 00:13:00,
2013-01-29 19:16:00,59.0,56.4,29.84,SSW,212,2.0,6.0,91,0.00,,---,0.03,VWS V14.00,2013-01-30 00:16:00,
2013-01-29 19:19:00,59.0,56.4,29.84,SW,226,10.0,10.0,91,0.00,,---,0.03,VWS V14.00,2013-01-30 00:19:00,
2013-01-29 19:22:00,59.1,56.5,29.84,South,179,2.0,10.0,91,0.00,,---,0.03,VWS V14.00,2013-01-30 00:22:00,
2013-01-29 19:25:00,59.1,56.5,29.84,SSW,211,0.0,10.0,91,0.00,,---,0.03,VWS V14.00,2013-01-30 00:25:00,
2013-01-29 19:28:00,59.1,56.5,29.84,SW,229,0.0,10.0,91,0.00,,---,0.03,VWS V14.00,2013-01-30 00:28:00,
2013-01-29 19:30:00,59.0,56.4,29.84,SW,229,0.0,10.0,91,0.00,,---,0.03,VWS V14.00,2013-01-30 00:30:00,
2013-01-29 19:31:00,58.9,56.3,29.84,SE,135,0.0,0.0,91,0.00,,---,0.03,VWS V14.00,2013-01-30 00:31:00,
2013-01-29 19:34:00,58.8,56.2,29.84,SW,215,2.0,3.0,91,0.00,,---,0.03,VWS V14.00,2013-01-30 00:34:00,
2013-01-29 19:37:00,59.0,56.4,29.84,SE,139,2.0,3.0,91,0.00,,---,0.03,VWS V14.00,2013-01-30 00:37:00,
2013-01-29 19:40:00,59.1,56.5,29.84,SSE,160,0.0,3.0,91,0.00,,---,0.03,VWS V14.00,2013-01-30 00:40:00,
2013-01-29 19:43:00,59.1,56.5,29.83,SW,215,0.0,3.0,91,0.00,,---,0.03,VWS V14.00,2013-01-30 00:43:00,
2013-01-29 19:46:00,59.1,56.5,29.83,West,260,1.0,3.0,91,0.00,,---,0.03,VWS V14.00,2013-01-30 00:46:00,
2013-01-29 19:49:00,58.9,56.6,29.84,WSW,257,2.0,3.0,92,0.00,,---,0.03,VWS V14.00,2013-01-30 00:49:00,
2013-01-29 19:52:00,58.9,56.6,29.84,West,277,4.0,6.0,92,0.00,,---,0.03,VWS V14.00,2013-01-30 00:52:00,
2013-01-29 19:55:00,59.1,56.5,29.84,SSW,210,4.0,6.0,91,0.00,,---,0.03,VWS V14.00,2013-01-30 00:55:00,
2013-01-29 19:58:00,59.1,56.5,29.84,West,278,1.0,6.0,91,0.00,,---,0.03,VWS V14.00,2013-01-30 00:58:00,
2013-01-29 20:00:00,59.0,56.4,29.84,WSW,249,2.0,6.0,91,0.00,,---,0.03,VWS V14.00,2013-01-30 01:00:00,
2013-01-29 20:01:00,58.9,56.3,29.84,West,262,1.0,2.0,91,0.00,,---,0.03,VWS V14.00,2013-01-30 01:01:00,
2013-01-29 20:04:00,58.9,56.6,29.84,SSW,208,4.0,4.0,92,0.00,,---,0.03,VWS V14.00,2013-01-30 01:04:00,
2013-01-29 20:07:00,59.0,56.4,29.84,SSE,155,0.0,4.0,91,0.00,,---,0.03,VWS V14.00,2013-01-30 01:07:00,
2013-01-29 20:10:00,59.0,56.4,29.85,SSE,166,2.0,4.0,91,0.00,,---,0.03,VWS V14.00,2013-01-30 01:10:00,
2013-01-29 20:13:00,58.9,56.3,29.84,SW,217,2.0,4.0,91,0.00,,---,0.03,VWS V14.00,2013-01-30 01:13:00,
2013-01-29 20:16:00,58.8,56.5,29.84,SSE,165,1.0,4.0,92,0.00,,---,0.03,VWS V14.00,2013-01-30 01:16:00,
2013-01-29 20:19:00,58.7,56.4,29.84,SW,217,0.0,4.0,92,0.00,,---,0.03,VWS V14.00,2013-01-30 01:19:00,
2013-01-29 20:22:00,58.6,56.3,29.83,SSE,167,0.0,4.0,92,0.00,,---,0.03,VWS V14.00,2013-01-30 01:22:00,
2013-01-29 20:25:00,58.5,56.2,29.84,SE,146,1.0,4.0,92,0.00,,---,0.03,VWS V14.00,2013-01-30 01:25:00,
2013-01-29 20:28:00,58.5,56.2,29.83,SSE,148,1.0,4.0,92,0.00,,---,0.03,VWS V14.00,2013-01-30 01:28:00,
2013-01-29 20:30:00,58.6,56.3,29.83,SE,128,0.0,4.0,92,0.00,,---,0.03,VWS V14.00,2013-01-30 01:30:00,
2013-01-29 20:31:00,58.5,56.2,29.83,SW,229,0.0,0.0,92,0.00,,---,0.03,VWS V14.00,2013-01-30 01:31:00,
2013-01-29 20:34:00,58.4,56.4,29.83,SW,229,0.0,0.0,93,0.00,,---,0.03,VWS V14.00,2013-01-30 01:34:00,
2013-01-29 20:37:00,58.3,56.3,29.82,South,169,0.0,0.0,93,0.00,,---,0.03,VWS V14.00,2013-01-30 01:37:00,
2013-01-29 20:40:00,58.3,56.3,29.82,SSW,197,0.0,0.0,93,0.00,,---,0.03,VWS V14.00,2013-01-30 01:40:00,
2013-01-29 20:43:00,58.3,56.3,29.82,SW,226,3.0,3.0,93,0.00,,---,0.03,VWS V14.00,2013-01-30 01:43:00,
2013-01-29 20:46:00,58.3,56.3,29.82,SW,219,9.0,9.0,93,0.00,,---,0.03,VWS V14.00,2013-01-30 01:46:00,
2013-01-29 20:49:00,58.6,56.6,29.81,SSW,194,1.0,10.0,93,0.00,,---,0.03,VWS V14.00,2013-01-30 01:49:00,
2013-01-29 20:52:00,58.6,56.6,29.82,SE,143,2.0,10.0,93,0.01,,---,0.04,VWS V14.00,2013-01-30 01:52:00,
2013-01-29 20:55:00,58.6,56.6,29.81,SW,219,4.0,10.0,93,0.01,,---,0.04,VWS V14.00,2013-01-30 01:55:00,
2013-01-29 20:58:00,58.7,57.0,29.81,SSE,166,2.0,10.0,94,0.01,,---,0.04,VWS V14.00,2013-01-30 01:58:00,
2013-01-29 21:00:00,58.7,57.0,29.81,SSE,166,2.0,10.0,94,0.01,,---,0.04,VWS V14.00,2013-01-30 02:00:00,
2013-01-29 21:01:00,58.7,57.0,29.81,SE,143,5.0,5.0,94,0.01,,---,0.04,VWS V14.00,2013-01-30 02:01:00,
2013-01-29 21:04:00,58.8,57.1,29.81,SSE,166,6.0,6.0,94,0.01,,---,0.04,VWS V14.00,2013-01-30 02:04:00,
2013-01-29 21:07:00,58.7,57.0,29.81,SSW,192,2.0,6.0,94,0.01,,---,0.04,VWS V14.00,2013-01-30 02:07:00,
2013-01-29 21:10:00,58.7,57.0,29.81,SSW,202,2.0,6.0,94,0.01,,---,0.04,VWS V14.00,2013-01-30 02:10:00,
2013-01-29 21:13:00,58.8,57.1,29.81,SSW,210,2.0,6.0,94,0.01,,---,0.04,VWS V14.00,2013-01-30 02:13:00,
2013-01-29 21:16:00,58.8,57.1,29.81,SSW,203,3.0,6.0,94,0.01,,---,0.04,VWS V14.00,2013-01-30 02:16:00,
2013-01-29 21:19:00,59.0,57.6,29.81,SW,215,6.0,9.0,95,0.04,,---,0.07,VWS V14.00,2013-01-30 02:19:00,
2013-01-29 21:22:00,59.1,57.7,29.81,South,181,4.0,9.0,95,0.05,,---,0.08,VWS V14.00,2013-01-30 02:22:00,
2013-01-29 21:25:00,59.1,57.7,29.81,SSW,192,5.0,9.0,95,0.06,,---,0.09,VWS V14.00,2013-01-30 02:25:00,
2013-01-29 21:28:00,59.0,57.6,29.80,SSW,203,4.0,9.0,95,0.07,,---,0.10,VWS V14.00,2013-01-30 02:28:00,
2013-01-29 21:30:00,59.0,57.6,29.80,South,169,6.0,9.0,95,0.07,,---,0.10,VWS V14.00,2013-01-30 02:30:00,
2013-01-29 21:31:00,59.0,57.6,29.80,South,185,3.0,6.0,95,0.07,,---,0.10,VWS V14.00,2013-01-30 02:31:00,
2013-01-29 21:34:00,59.0,57.6,29.80,SSE,162,5.0,7.0,95,0.08,,---,0.11,VWS V14.00,2013-01-30 02:34:00,
2013-01-29 21:37:00,59.1,57.7,29.80,South,176,5.0,7.0,95,0.08,,---,0.11,VWS V14.00,2013-01-30 02:37:00,
2013-01-29 21:40:00,59.1,57.7,29.80,South,175,5.0,9.0,95,0.09,,---,0.12,VWS V14.00,2013-01-30 02:40:00,
2013-01-29 21:43:00,59.1,57.7,29.80,SSW,203,4.0,9.0,95,0.09,,---,0.12,VWS V14.00,2013-01-30 02:43:00,
2013-01-29 21:46:00,59.1,57.7,29.80,SW,225,5.0,9.0,95,0.10,,---,0.13,VWS V14.00,2013-01-30 02:46:00,
2013-01-29 21:49:00,59.0,57.9,29.80,SE,132,5.0,9.0,96,0.10,,---,0.13,VWS V14.00,2013-01-30 02:49:00,
2013-01-29 21:52:00,59.1,58.0,29.80,South,184,4.0,9.0,96,0.10,,---,0.13,VWS V14.00,2013-01-30 02:52:00,
2013-01-29 21:55:00,59.1,58.0,29.79,SSE,165,10.0,10.0,96,0.10,,---,0.13,VWS V14.00,2013-01-30 02:55:00,
2013-01-29 21:58:00,59.2,57.8,29.79,SSE,168,6.0,10.0,95,0.10,,---,0.13,VWS V14.00,2013-01-30 02:58:00,
2013-01-29 22:00:00,59.2,57.8,29.79,South,184,4.0,10.0,95,0.10,,---,0.13,VWS V14.00,2013-01-30 03:00:00,
2013-01-29 22:01:00,59.2,57.8,29.79,SSE,160,6.0,6.0,95,0.09,,---,0.13,VWS V14.00,2013-01-30 03:01:00,
2013-01-29 22:04:00,59.1,57.7,29.79,South,191,7.0,9.0,95,0.10,,---,0.14,VWS V14.00,2013-01-30 03:04:00,
2013-01-29 22:07:00,59.1,58.0,29.79,South,176,7.0,11.0,96,0.12,,---,0.16,VWS V14.00,2013-01-30 03:07:00,
2013-01-29 22:10:00,59.1,58.0,29.79,SSE,163,8.0,11.0,96,0.12,,---,0.16,VWS V14.00,2013-01-30 03:10:00,
2013-01-29 22:13:00,59.0,57.9,29.79,SSE,167,8.0,11.0,96,0.12,,---,0.16,VWS V14.00,2013-01-30 03:13:00,
2013-01-29 22:16:00,59.0,57.9,29.79,South,169,4.0,12.0,96,0.12,,---,0.16,VWS V14.00,2013-01-30 03:16:00,
2013-01-29 22:19:00,59.0,57.9,29.79,SSE,165,8.0,13.0,96,0.12,,---,0.16,VWS V14.00,2013-01-30 03:19:00,
2013-01-29 22:22:00,59.2,58.1,29.79,SSE,160,8.0,13.0,96,0.12,,---,0.16,VWS V14.00,2013-01-30 03:22:00,
2013-01-29 22:25:00,59.3,58.2,29.78,South,173,4.0,14.0,96,0.12,,---,0.16,VWS V14.00,2013-01-30 03:25:00,
2013-01-29 22:28:00,59.4,58.3,29.78,South,177,6.0,14.0,96,0.12,,---,0.16,VWS V14.00,2013-01-30 03:28:00,
2013-01-29 22:30:00,59.4,58.3,29.78,South,172,8.0,14.0,96,0.12,,---,0.16,VWS V14.00,2013-01-30 03:30:00,
2013-01-29 22:31:00,59.4,58.3,29.78,South,186,5.0,12.0,96,0.06,,---,0.16,VWS V14.00,2013-01-30 03:31:00,
2013-01-29 22:34:00,59.5,58.4,29.78,South,169,13.0,13.0,96,0.06,,---,0.16,VWS V14.00,2013-01-30 03:34:00,
2013-01-29 22:37:00,59.5,58.4,29.78,SSE,165,11.0,16.0,96,0.06,,---,0.16,VWS V14.00,2013-01-30 03:37:00,
2013-01-29 22:40:00,59.6,58.5,29.78,SSE,160,13.0,18.0,96,0.06,,---,0.16,VWS V14.00,2013-01-30 03:40:00,
2013-01-29 22:43:00,59.6,58.5,29.78,South,172,9.0,18.0,96,0.06,,---,0.16,VWS V14.00,2013-01-30 03:43:00,
2013-01-29 22:46:00,59.6,58.5,29.78,SSW,197,9.0,18.0,96,0.06,,---,0.16,VWS V14.00,2013-01-30 03:46:00,
2013-01-29 22:49:00,59.6,58.5,29.79,SSE,149,7.0,18.0,96,0.06,,---,0.16,VWS V14.00,2013-01-30 03:49:00,
2013-01-29 22:52:00,59.7,58.6,29.79,South,176,7.0,18.0,96,0.06,,---,0.16,VWS V14.00,2013-01-30 03:52:00,
2013-01-29 22:55:00,59.9,58.8,29.79,South,174,10.0,18.0,96,0.06,,---,0.16,VWS V14.00,2013-01-30 03:55:00,
2013-01-29 22:58:00,59.9,58.5,29.78,SSE,166,8.0,18.0,95,0.06,,---,0.16,VWS V14.00,2013-01-30 03:58:00,
2013-01-29 23:00:00,59.9,58.5,29.78,SE,143,11.0,18.0,95,0.06,,---,0.16,VWS V14.00,2013-01-30 04:00:00,
2013-01-29 23:01:00,59.8,58.4,29.79,South,184,14.0,18.0,95,0.03,,---,0.16,VWS V14.00,2013-01-30 04:01:00,
2013-01-29 23:04:00,59.8,58.4,29.79,SE,146,10.0,18.0,95,0.03,,---,0.16,VWS V14.00,2013-01-30 04:04:00,
2013-01-29 23:08:00,59.6,58.2,29.78,SSE,164,12.0,18.0,95,0.03,,---,0.16,VWS V14.00,2013-01-30 04:08:00,
2013-01-29 23:11:00,59.5,58.4,29.78,SE,146,12.0,18.0,96,0.03,,---,0.16,VWS V14.00,2013-01-30 04:11:00,
2013-01-29 23:14:00,59.5,58.4,29.78,SSE,160,8.0,18.0,96,0.03,,---,0.16,VWS V14.00,2013-01-30 04:14:00,
2013-01-29 23:17:00,59.5,58.4,29.77,SSE,148,16.0,18.0,96,0.03,,---,0.16,VWS V14.00,2013-01-30 04:17:00,
2013-01-29 23:20:00,59.5,58.4,29.77,SSE,163,14.0,18.0,96,0.03,,---,0.16,VWS V14.00,2013-01-30 04:20:00,
2013-01-29 23:23:00,59.6,58.5,29.77,SE,146,9.0,21.0,96,0.03,,---,0.16,VWS V14.00,2013-01-30 04:23:00,
2013-01-29 23:26:00,59.6,58.5,29.77,SSE,155,15.0,21.0,96,0.03,,---,0.16,VWS V14.00,2013-01-30 04:26:00,
2013-01-29 23:29:00,59.6,58.5,29.77,South,170,12.0,21.0,96,0.03,,---,0.16,VWS V14.00,2013-01-30 04:29:00,
2013-01-29 23:30:00,59.6,58.5,29.77,SE,135,14.0,21.0,96,0.03,,---,0.16,VWS V14.00,2013-01-30 04:30:00,
2013-01-29 23:32:00,59.7,58.6,29.77,SSE,166,7.0,14.0,96,0.00,,---,0.16,VWS V14.00,2013-01-30 04:32:00,
2013-01-29 23:35:00,59.7,58.6,29.77,South,169,10.0,22.0,96,0.00,,---,0.16,VWS V14.00,2013-01-30 04:35:00,
2013-01-29 23:41:00,59.8,58.7,29.76,South,181,4.0,22.0,96,0.00,,---,0.16,VWS V14.00,2013-01-30 04:41:00,
2013-01-29 23:44:00,59.8,58.7,29.76,South,186,8.0,22.0,96,0.00,,---,0.16,VWS V14.00,2013-01-30 04:44:00,
2013-01-29 23:47:00,59.7,58.3,29.76,SE,146,8.0,22.0,95,0.00,,---,0.16,VWS V14.00,2013-01-30 04:47:00,
2013-01-29 23:50:00,59.7,58.6,29.76,South,176,11.0,22.0,96,0.00,,---,0.16,VWS V14.00,2013-01-30 04:50:00,
2013-01-29 23:53:00,59.7,58.6,29.75,South,176,11.0,22.0,96,0.00,,---,0.16,VWS V14.00,2013-01-30 04:53:00,
2013-01-29 23:56:00,59.7,58.6,29.75,SSE,160,15.0,22.0,96,0.00,,---,0.16,VWS V14.00,2013-01-30 04:56:00,
2013-01-29 23:59:00,59.7,58.6,29.75,South,188,15.0,22.0,96,0.00,,---,0.16,VWS V14.00,2013-01-30 04:59:00,